Time,TemperatureF,DewpointF,PressureIn,WindDirection,WindDirectionDegrees,WindSpeedMPH,WindSpeedGustMPH,Humidity,HourlyPrecipIn,Conditions,Clouds,dailyrainin,SoftwareType,DateUTC
2013-03-17 00:03:00,58.0,43.0,29.98,WNW,290,1.0,7.0,58,0.00,,,0.00,,2013-03-17 04:03:00,
2013-03-17 00:13:00,58.0,43.0,29.98,WNW,290,1.0,7.0,58,0.00,,,0.00,,2013-03-17 04:13:00,
2013-03-17 00:23:00,58.0,43.0,29.98,SE,138,3.0,7.0,58,0.00,,,0.00,,2013-03-17 04:23:00,
2013-03-17 00:33:00,57.0,43.0,29.98,East,86,3.0,8.0,59,0.00,,,0.00,,2013-03-17 04:33:00,
2013-03-17 00:43:00,57.0,43.0,29.98,East,86,3.0,8.0,59,0.00,,,0.00,,2013-03-17 04:43:00,
2013-03-17 00:53:00,57.0,43.0,29.98,NNE,29,3.0,5.0,59,0.00,,,0.00,,2013-03-17 04:53:00,
2013-03-17 01:03:00,57.0,43.0,29.98,NNE,29,3.0,5.0,59,0.00,,,0.00,,2013-03-17 05:03:00,
2013-03-17 01:12:00,57.0,43.0,29.98,NNE,29,3.0,5.0,59,0.00,,,0.00,,2013-03-17 05:12:00,
2013-03-17 01:22:00,57.0,43.0,29.97,ESE,103,3.0,8.0,60,0.00,,,0.00,,2013-03-17 05:22:00,
2013-03-17 01:32:00,56.0,42.0,29.98,WNW,288,0.0,7.0,60,0.00,,,0.00,,2013-03-17 05:32:00,
2013-03-17 01:42:00,56.0,42.0,29.98,WNW,288,0.0,7.0,60,0.00,,,0.00,,2013-03-17 05:42:00,
2013-03-17 01:52:00,56.0,43.0,29.97,SW,225,1.0,9.0,61,0.00,,,0.00,,2013-03-17 05:52:00,
2013-03-17 02:02:00,56.0,43.0,29.97,WSW,241,2.0,10.0,61,0.00,,,0.00,,2013-03-17 06:02:00,
2013-03-17 02:12:00,56.0,43.0,29.97,WSW,241,2.0,10.0,61,0.00,,,0.00,,2013-03-17 06:12:00,
2013-03-17 02:22:00,57.0,44.0,29.98,SW,225,2.0,7.0,61,0.00,,,0.00,,2013-03-17 06:22:00,
2013-03-17 02:32:00,57.0,44.0,29.97,South,191,3.0,12.0,61,0.00,,,0.00,,2013-03-17 06:32:00,
2013-03-17 02:42:00,57.0,44.0,29.97,South,191,3.0,12.0,61,0.00,,,0.00,,2013-03-17 06:42:00,
2013-03-17 02:52:00,57.0,44.0,29.97,SSE,162,0.0,9.0,61,0.00,,,0.00,,2013-03-17 06:52:00,
2013-03-17 03:02:00,57.0,44.0,29.97,ENE,60,1.0,14.0,62,0.00,,,0.00,,2013-03-17 07:02:00,
2013-03-17 03:12:00,57.0,44.0,29.97,ENE,60,1.0,14.0,62,0.00,,,0.00,,2013-03-17 07:12:00,
2013-03-17 03:22:00,57.0,44.0,29.97,ENE,60,1.0,14.0,62,0.00,,,0.00,,2013-03-17 07:22:00,
2013-03-17 03:32:00,57.0,44.0,29.97,SSW,213,0.0,5.0,62,0.00,,,0.00,,2013-03-17 07:32:00,
2013-03-17 03:42:00,57.0,44.0,29.97,SSW,213,0.0,5.0,62,0.00,,,0.00,,2013-03-17 07:42:00,
2013-03-17 03:52:00,56.0,44.0,29.96,ESE,119,0.0,3.0,63,0.00,,,0.00,,2013-03-17 07:52:00,
2013-03-17 04:03:00,56.0,44.0,29.96,ESE,119,0.0,3.0,63,0.00,,,0.00,,2013-03-17 08:03:00,
2013-03-17 04:13:00,55.0,43.0,29.95,South,187,4.0,11.0,65,0.00,,,0.00,,2013-03-17 08:13:00,
2013-03-17 04:22:00,55.0,43.0,29.95,South,187,4.0,11.0,65,0.00,,,0.00,,2013-03-17 08:22:00,
2013-03-17 04:33:00,55.0,44.0,29.96,ENE,58,5.0,13.0,66,0.00,,,0.00,,2013-03-17 08:33:00,
2013-03-17 04:42:00,55.0,44.0,29.96,ENE,58,5.0,13.0,66,0.00,,,0.00,,2013-03-17 08:42:00,
2013-03-17 04:52:00,55.0,44.0,29.95,SSE,158,0.0,7.0,66,0.00,,,0.00,,2013-03-17 08:52:00,
2013-03-17 05:03:00,55.0,44.0,29.95,SE,131,1.0,4.0,66,0.00,,,0.00,,2013-03-17 09:03:00,
2013-03-17 05:13:00,55.0,44.0,29.95,SE,131,1.0,4.0,66,0.00,,,0.00,,2013-03-17 09:13:00,
2013-03-17 05:22:00,55.0,44.0,29.95,East,83,0.0,5.0,67,0.00,,,0.00,,2013-03-17 09:22:00,
2013-03-17 05:32:00,54.0,43.0,29.95,SSE,150,0.0,4.0,67,0.00,,,0.00,,2013-03-17 09:32:00,
2013-03-17 05:43:00,54.0,43.0,29.95,SSE,150,0.0,4.0,67,0.00,,,0.00,,2013-03-17 09:43:00,
2013-03-17 05:53:00,54.0,43.0,29.95,ENE,67,2.0,7.0,67,0.00,,,0.00,,2013-03-17 09:53:00,
2013-03-17 06:03:00,55.0,44.0,29.95,WNW,284,3.0,6.0,66,0.00,,,0.00,,2013-03-17 10:03:00,
2013-03-17 06:13:00,55.0,44.0,29.95,WNW,284,3.0,6.0,66,0.00,,,0.00,,2013-03-17 10:13:00,
2013-03-17 06:23:00,55.0,44.0,29.96,ESE,109,1.0,7.0,66,0.00,,,0.00,,2013-03-17 10:23:00,
2013-03-17 06:33:00,55.0,43.0,29.96,SSW,204,1.0,5.0,65,0.00,,,0.00,,2013-03-17 10:33:00,
2013-03-17 06:42:00,55.0,43.0,29.96,SSW,204,1.0,5.0,65,0.00,,,0.00,,2013-03-17 10:42:00,
2013-03-17 06:52:00,54.0,43.0,29.96,ENE,70,2.0,6.0,66,0.00,,,0.00,,2013-03-17 10:52:00,
2013-03-17 07:02:00,54.0,43.0,29.96,ENE,59,0.0,4.0,66,0.00,,,0.00,,2013-03-17 11:02:00,
2013-03-17 07:12:00,54.0,43.0,29.96,ENE,59,0.0,4.0,66,0.00,,,0.00,,2013-03-17 11:12:00,
2013-03-17 07:22:00,54.0,43.0,29.97,South,175,2.0,6.0,67,0.00,,,0.00,,2013-03-17 11:22:00,
2013-03-17 07:32:00,54.0,43.0,29.98,North,352,0.0,8.0,67,0.00,,,0.00,,2013-03-17 11:32:00,
2013-03-17 07:42:00,54.0,43.0,29.98,North,352,0.0,8.0,67,0.00,,,0.00,,2013-03-17 11:42:00,
2013-03-17 07:52:00,54.0,43.0,29.98,South,181,0.0,6.0,67,0.00,,,0.00,,2013-03-17 11:52:00,
2013-03-17 08:02:00,54.0,43.0,29.98,SSW,199,2.0,5.0,67,0.00,,,0.00,,2013-03-17 12:02:00,
2013-03-17 08:12:00,54.0,43.0,29.98,SSW,199,2.0,5.0,67,0.00,,,0.00,,2013-03-17 12:12:00,
2013-03-17 08:22:00,54.0,43.0,29.98,SSW,203,0.0,3.0,67,0.00,,,0.00,,2013-03-17 12:22:00,
2013-03-17 08:33:00,54.0,44.0,29.99,SSE,150,1.0,5.0,68,0.00,,,0.00,,2013-03-17 12:33:00,
2013-03-17 08:43:00,54.0,44.0,29.99,SSE,150,1.0,5.0,68,0.00,,,0.00,,2013-03-17 12:43:00,
2013-03-17 08:52:00,54.0,44.0,29.99,East,99,0.0,5.0,68,0.00,,,0.00,,2013-03-17 12:52:00,
2013-03-17 09:02:00,54.0,44.0,29.99,East,91,0.0,2.0,68,0.00,,,0.00,,2013-03-17 13:02:00,
2013-03-17 09:13:00,54.0,44.0,29.99,East,91,0.0,2.0,68,0.00,,,0.00,,2013-03-17 13:13:00,
2013-03-17 09:22:00,54.0,44.0,29.99,East,91,0.0,1.0,69,0.00,,,0.00,,2013-03-17 13:22:00,
2013-03-17 09:32:00,54.0,44.0,30.00,East,91,0.0,2.0,69,0.00,,,0.00,,2013-03-17 13:32:00,
2013-03-17 09:42:00,54.0,44.0,30.00,East,91,0.0,2.0,69,0.00,,,0.00,,2013-03-17 13:42:00,
2013-03-17 09:52:00,55.0,45.0,30.00,SSE,152,0.0,7.0,68,0.00,,,0.00,,2013-03-17 13:52:00,
2013-03-17 10:02:00,55.0,45.0,30.01,SSW,197,1.0,5.0,69,0.00,,,0.00,,2013-03-17 14:02:00,
2013-03-17 10:12:00,55.0,45.0,30.01,SSW,197,1.0,5.0,69,0.00,,,0.00,,2013-03-17 14:12:00,
2013-03-17 10:22:00,57.0,45.0,30.01,SSW,199,3.0,8.0,65,0.00,,,0.00,,2013-03-17 14:22:00,
2013-03-17 10:33:00,58.0,46.0,30.01,South,170,3.0,13.0,64,0.00,,,0.00,,2013-03-17 14:33:00,
2013-03-17 10:42:00,58.0,46.0,30.01,South,170,3.0,13.0,64,0.00,,,0.00,,2013-03-17 14:42:00,
2013-03-17 10:53:00,58.0,46.0,30.00,WSW,250,3.0,11.0,64,0.00,,,0.00,,2013-03-17 14:53:00,
2013-03-17 11:02:00,58.0,45.0,30.00,SW,227,5.0,12.0,63,0.00,,,0.00,,2013-03-17 15:02:00,
2013-03-17 11:12:00,58.0,45.0,30.00,SW,227,5.0,12.0,63,0.00,,,0.00,,2013-03-17 15:12:00,
2013-03-17 11:23:00,59.0,46.0,30.00,SW,234,4.0,12.0,63,0.00,,,0.00,,2013-03-17 15:23:00,
2013-03-17 11:33:00,60.0,47.0,29.99,SW,214,6.0,10.0,61,0.00,,,0.00,,2013-03-17 15:33:00,
2013-03-17 11:43:00,60.0,47.0,29.99,SW,214,6.0,10.0,61,0.00,,,0.00,,2013-03-17 15:43:00,
2013-03-17 11:53:00,60.0,47.0,29.99,SSW,195,2.0,12.0,61,0.00,,,0.00,,2013-03-17 15:53:00,
2013-03-17 12:03:00,61.0,47.0,29.99,SSW,200,5.0,10.0,59,0.00,,,0.00,,2013-03-17 16:03:00,
2013-03-17 12:12:00,61.0,47.0,29.99,SSW,200,5.0,10.0,59,0.00,,,0.00,,2013-03-17 16:12:00,
2013-03-17 12:23:00,62.0,46.0,29.99,SSE,153,6.0,13.0,56,0.00,,,0.00,,2013-03-17 16:23:00,
2013-03-17 12:33:00,63.0,47.0,29.99,South,190,4.0,11.0,55,0.00,,,0.00,,2013-03-17 16:33:00,
2013-03-17 12:43:00,63.0,47.0,29.99,South,190,4.0,11.0,55,0.00,,,0.00,,2013-03-17 16:43:00,
2013-03-17 12:52:00,63.0,46.0,29.98,WSW,237,8.0,14.0,53,0.00,,,0.00,,2013-03-17 16:52:00,
2013-03-17 13:02:00,63.0,44.0,29.98,SW,220,9.0,16.0,50,0.00,,,0.00,,2013-03-17 17:02:00,
2013-03-17 13:12:00,63.0,44.0,29.98,SW,220,9.0,16.0,50,0.00,,,0.00,,2013-03-17 17:12:00,
2013-03-17 13:22:00,63.0,45.0,29.97,SSW,212,1.0,9.0,52,0.00,,,0.00,,2013-03-17 17:22:00,
2013-03-17 13:33:00,63.0,44.0,29.96,South,176,3.0,13.0,49,0.00,,,0.00,,2013-03-17 17:33:00,
2013-03-17 13:42:00,63.0,44.0,29.96,South,176,3.0,13.0,49,0.00,,,0.00,,2013-03-17 17:42:00,
2013-03-17 13:53:00,65.0,45.0,29.96,SSW,198,4.0,13.0,48,0.00,,,0.00,,2013-03-17 17:53:00,
2013-03-17 14:02:00,65.0,45.0,29.95,SW,226,3.0,7.0,48,0.00,,,0.00,,2013-03-17 18:02:00,
2013-03-17 14:12:00,65.0,45.0,29.95,SW,226,3.0,7.0,48,0.00,,,0.00,,2013-03-17 18:12:00,
2013-03-17 14:22:00,66.0,45.0,29.95,SE,134,2.0,14.0,46,0.00,,,0.00,,2013-03-17 18:22:00,
2013-03-17 14:32:00,67.0,44.0,29.93,West,266,6.0,11.0,44,0.00,,,0.00,,2013-03-17 18:32:00,
2013-03-17 14:42:00,67.0,44.0,29.93,West,266,6.0,11.0,44,0.00,,,0.00,,2013-03-17 18:42:00,
2013-03-17 14:52:00,66.0,45.0,29.93,SSE,158,4.0,10.0,46,0.00,,,0.00,,2013-03-17 18:52:00,
2013-03-17 15:02:00,67.0,44.0,29.92,SW,219,6.0,17.0,43,0.00,,,0.00,,2013-03-17 19:02:00,
2013-03-17 15:12:00,67.0,44.0,29.92,SW,219,6.0,17.0,43,0.00,,,0.00,,2013-03-17 19:12:00,
2013-03-17 15:22:00,67.0,43.0,29.91,West,264,6.0,16.0,41,0.00,,,0.00,,2013-03-17 19:22:00,
2013-03-17 15:33:00,67.0,41.0,29.91,SW,228,8.0,17.0,39,0.00,,,0.00,,2013-03-17 19:33:00,
2013-03-17 15:42:00,67.0,41.0,29.91,SW,228,8.0,17.0,39,0.00,,,0.00,,2013-03-17 19:42:00,
2013-03-17 15:53:00,68.0,41.0,29.90,South,178,1.0,10.0,38,0.00,,,0.00,,2013-03-17 19:53:00,
2013-03-17 16:02:00,68.0,42.0,29.90,WSW,237,5.0,11.0,39,0.00,,,0.00,,2013-03-17 20:02:00,
2013-03-17 16:12:00,68.0,42.0,29.90,WSW,237,5.0,11.0,39,0.00,,,0.00,,2013-03-17 20:12:00,
2013-03-17 16:22:00,67.0,41.0,29.90,West,270,3.0,9.0,39,0.00,,,0.00,,2013-03-17 20:22:00,
2013-03-17 16:33:00,67.0,41.0,29.91,SW,228,9.0,16.0,38,0.00,,,0.00,,2013-03-17 20:33:00,
2013-03-17 16:42:00,67.0,41.0,29.91,SW,228,9.0,16.0,38,0.00,,,0.00,,2013-03-17 20:42:00,
2013-03-17 16:52:00,66.0,42.0,29.91,SW,230,8.0,16.0,41,0.00,,,0.00,,2013-03-17 20:52:00,
2013-03-17 17:03:00,66.0,42.0,29.91,SE,124,5.0,15.0,41,0.00,,,0.00,,2013-03-17 21:03:00,
2013-03-17 17:12:00,66.0,42.0,29.91,SE,124,5.0,15.0,41,0.00,,,0.00,,2013-03-17 21:12:00,
2013-03-17 17:22:00,66.0,42.0,29.91,WSW,255,8.0,17.0,42,0.00,,,0.00,,2013-03-17 21:22:00,
2013-03-17 17:33:00,65.0,42.0,29.91,South,182,6.0,14.0,43,0.00,,,0.00,,2013-03-17 21:33:00,
2013-03-17 17:43:00,65.0,42.0,29.91,South,182,6.0,14.0,43,0.00,,,0.00,,2013-03-17 21:43:00,
2013-03-17 17:52:00,65.0,43.0,29.90,ENE,71,3.0,8.0,44,0.00,,,0.00,,2013-03-17 21:52:00,
2013-03-17 18:03:00,64.0,42.0,29.91,South,181,5.0,12.0,45,0.00,,,0.00,,2013-03-17 22:03:00,
2013-03-17 18:13:00,64.0,42.0,29.91,South,181,5.0,12.0,45,0.00,,,0.00,,2013-03-17 22:13:00,
2013-03-17 18:23:00,64.0,42.0,29.91,South,181,5.0,12.0,45,0.00,,,0.00,,2013-03-17 22:23:00,
2013-03-17 18:33:00,63.0,43.0,29.91,SW,219,5.0,12.0,48,0.00,,,0.00,,2013-03-17 22:33:00,
2013-03-17 18:42:00,63.0,43.0,29.91,SW,219,5.0,12.0,48,0.00,,,0.00,,2013-03-17 22:42:00,
2013-03-17 18:53:00,62.0,43.0,29.91,SW,231,5.0,14.0,50,0.00,,,0.00,,2013-03-17 22:53:00,
2013-03-17 19:03:00,62.0,44.0,29.92,SW,225,6.0,13.0,51,0.00,,,0.00,,2013-03-17 23:03:00,
2013-03-17 19:12:00,62.0,44.0,29.92,SW,225,6.0,13.0,51,0.00,,,0.00,,2013-03-17 23:12:00,
2013-03-17 19:22:00,61.0,43.0,29.92,SW,222,5.0,12.0,52,0.00,,,0.00,,2013-03-17 23:22:00,
2013-03-17 19:33:00,60.0,43.0,29.93,WSW,238,4.0,13.0,53,0.00,,,0.00,,2013-03-17 23:33:00,
2013-03-17 19:43:00,60.0,43.0,29.93,WSW,238,4.0,13.0,53,0.00,,,0.00,,2013-03-17 23:43:00,
2013-03-17 19:53:00,60.0,43.0,29.94,SSW,203,6.0,12.0,54,0.00,,,0.00,,2013-03-17 23:53:00,
2013-03-17 20:03:00,59.0,43.0,29.95,WSW,250,3.0,11.0,55,0.00,,,0.00,,2013-03-18 00:03:00,
2013-03-17 20:13:00,59.0,43.0,29.95,WSW,250,3.0,11.0,55,0.00,,,0.00,,2013-03-18 00:13:00,
2013-03-17 20:22:00,59.0,44.0,29.95,SW,223,3.0,8.0,57,0.00,,,0.00,,2013-03-18 00:22:00,
2013-03-17 20:33:00,58.0,43.0,29.96,WSW,237,2.0,6.0,58,0.00,,,0.00,,2013-03-18 00:33:00,
2013-03-17 20:42:00,58.0,43.0,29.96,WSW,237,2.0,6.0,58,0.00,,,0.00,,2013-03-18 00:42:00,
2013-03-17 20:53:00,58.0,44.0,29.96,SSW,207,2.0,6.0,59,0.00,,,0.00,,2013-03-18 00:53:00,
2013-03-17 21:02:00,57.0,44.0,29.97,South,181,2.0,6.0,61,0.00,,,0.00,,2013-03-18 01:02:00,
2013-03-17 21:12:00,57.0,44.0,29.97,South,181,2.0,6.0,61,0.00,,,0.00,,2013-03-18 01:12:00,
2013-03-17 21:22:00,57.0,44.0,29.97,SSE,167,2.0,6.0,61,0.00,,,0.00,,2013-03-18 01:22:00,
2013-03-17 21:32:00,56.0,43.0,29.98,SW,217,0.0,5.0,61,0.00,,,0.00,,2013-03-18 01:32:00,
2013-03-17 21:42:00,56.0,43.0,29.98,SW,217,0.0,5.0,61,0.00,,,0.00,,2013-03-18 01:42:00,
2013-03-17 21:52:00,56.0,43.0,29.98,South,170,0.0,2.0,61,0.00,,,0.00,,2013-03-18 01:52:00,
2013-03-17 22:02:00,55.0,42.0,29.98,South,174,0.0,2.0,62,0.00,,,0.00,,2013-03-18 02:02:00,
2013-03-17 22:12:00,55.0,42.0,29.98,South,174,0.0,2.0,62,0.00,,,0.00,,2013-03-18 02:12:00,
2013-03-17 22:22:00,55.0,43.0,29.99,SSW,198,1.0,7.0,63,0.00,,,0.00,,2013-03-18 02:22:00,
2013-03-17 22:32:00,55.0,43.0,29.99,SSW,198,1.0,7.0,63,0.00,,,0.00,,2013-03-18 02:32:00,
2013-03-17 22:42:00,55.0,43.0,29.99,SSW,198,1.0,7.0,63,0.00,,,0.00,,2013-03-18 02:42:00,
2013-03-17 22:52:00,55.0,44.0,29.99,SW,220,4.0,11.0,67,0.00,,,0.00,,2013-03-18 02:52:00,
2013-03-17 23:03:00,55.0,45.0,29.99,SE,129,1.0,5.0,68,0.00,,,0.00,,2013-03-18 03:03:00,
2013-03-17 23:12:00,55.0,45.0,29.99,SE,129,1.0,5.0,68,0.00,,,0.00,,2013-03-18 03:12:00,
2013-03-17 23:22:00,55.0,45.0,29.99,South,178,0.0,7.0,70,0.00,,,0.00,,2013-03-18 03:22:00,
2013-03-17 23:33:00,54.0,45.0,29.99,WNW,297,0.0,6.0,71,0.00,,,0.00,,2013-03-18 03:33:00,
2013-03-17 23:42:00,54.0,45.0,29.99,WNW,297,0.0,6.0,71,0.00,,,0.00,,2013-03-18 03:42:00,
2013-03-17 23:53:00,54.0,45.0,30.00,SSW,200,0.0,6.0,72,0.00,,,0.00,,2013-03-18 03:53:00,